Temp
16 16 16 16 16 16 16 15 15 16 16 15 15 16 16 16 17 16 16 16 16 16 16 17 17 17 18 18 19 20 19 19 21 22 24 27 27 21 23 23 25 26 26 24 21
16 16 16 16 16 16 16 16 16 16 16 16 16 16 16 17 17 16 16 16 16 16 15 16 18 19 18 19 19 19 18 19 23 24 25 26 26 24 18 21 26 25 25 23 21
16 16 16 16 16 16 16 16 16 17 17 17 16 17 17 17 16 16 16 16 16 16 15 15 17 18 18 19 20 20 18 21 22 24 25 25 25 25 19 23 26 26 24 22 21
16 16 16 16 16 16 16 16 16 16 17 17 17 17 17 17 18 16 16 16 15 15 16 17 18 18 19 19 20 19 21 22 23 23 23 24 24 24 18 15 24 24 24 22 21
16 16 16 15 15 16 16 16 16 17 17 17 17 17 17 16 17 17 16 16 15 15 16 17 18 19 18 20 21 20 21 22 22 23 23 23 23 23 24 24 24 24 23 22 22
15 15 15 15 15 15 16 16 16 17 17 17 17 17 16 18 17 17 16 16 15 15 16 17 17 17 18 18 19 20 20 20 21 21 22 22 23 23 23 24 22 23 24 23 22
15 15 15 15 15 15 16 16 17 17 17 17 17 17 16 17 17 17 16 16 16 16 15 16 16 16 17 18 19 20 19 19 20 20 20 22 21 21 23 24 22 22 23 23 23
15 15 15 15 15 15 16 16 17 17 17 17 17 17 16 18 17 17 16 16 16 16 15 15 15 15 16 17 18 18 18 17 20 20 21 21 19 21 23 23 24 22 22 23 23
15 15 15 15 15 16 16 17 17 17 17 17 17 15 18 18 17 16 16 16 16 16 15 15 15 16 17 17 17 18 17 18 20 22 21 20 19 21 22 23 23 24 23 23 23
15 15 15 15 15 16 16 17 18 17 18 17 17 15 18 18 17 17 17 16 15 16 16 15 16 17 18 17 16 18 17 18 18 20 21 20 19 21 23 23 23 24 23 23 24
15 15 15 15 15 15 16 16 17 17 16 17 18 17 18 17 17 17 17 16 16 17 18 18 17 16 17 18 18 18 17 17 18 19 19 19 20 21 22 23 22 23 24 23 23
14 14 15 15 15 15 15 14 12 12 12 17 17 16 17 17 17 19 18 18 18 18 19 18 16 18 18 18 17 17 17 16 17 19 19 18 19 21 22 21 22 23 23 22 22
14 14 15 15 15 14 13 13 13 12 13 18 17 18 18 17 17 18 18 17 18 18 18 16 17 18 18 17 17 16 16 16 17 18 18 18 17 19 22 23 22 22 22 23 22
14 14 15 15 14 14 13 13 13 12 15 19 19 18 18 18 18 18 18 17 18 18 17 17 18 17 16 16 17 14 17 17 16 15 14 18 15 18 20 21 22 22 22 22 22
14 15 14 15 14 13 13 14 13 12 17 20 20 19 19 19 19 19 18 17 18 18 17 17 16 16 15 16 16 15 14 14 15 15 15 15 14 17 18 20 21 20 22 21 21
14 15 15 15 12 14 14 13 11 15 18 20 20 20 20 21 21 20 20 17 18 18 18 18 17 17 16 16 17 17 14 13 13 14 12 15 14 13 17 20 21 20 22 22 21
14 15 15 14 13 14 14 12 15 17 21 19 19 20 20 20 20 21 20 20 18 15 15 17 16 17 17 16 17 15 12 9 10 12 12 13 12 13 15 16 19 18 18 21 19
14 15 14 14 14 14 12 15 17 20 18 19 19 19 19 20 20 20 20 19 18 17 15 14 14 16 17 16 15 15 12 10 10 12 11 11 11 12 12 14 19 18 21 19 18
14 13 12 14 14 14 13 17 17 17 17 17 18 19 19 20 19 19 19 18 17 17 14 14 14 17 18 17 16 15 12 10 9 9 11 10 12 13 14 18 17 16 16 17 17
15 13 13 14 14 14 15 17 18 17 17 17 16 19 17 18 18 18 19 18 17 17 17 16 13 17 18 18 17 15 12 11 9 11 11 14 16 16 17 17 17 15 15 15 15
14 15 14 14 14 13 16 18 17 17 16 16 17 16 17 17 17 17 18 17 16 16 16 17 16 16 18 17 16 15 15 13 11 11 12 14 15 18 17 17 16 14 15 14 14
12 15 14 14 14 17 17 15 15 16 16 16 16 17 17 16 16 17 17 17 16 16 15 16 14 14 17 19 19 17 16 17 12 12 10 11 14 17 17 16 15 15 14 14 13
12 15 14 14 15 17 18 17 16 15 16 16 16 17 16 16 15 17 17 17 16 16 14 14 14 14 16 16 18 17 18 18 17 13 14 11 13 17 16 15 15 14 13 12 12
12 15 14 13 15 15 16 16 16 15 15 15 15 16 16 16 17 16 17 17 17 17 14 13 14 14 13 15 16 16 17 17 17 13 15 15 16 16 16 15 14 13 13 12 12
12 14 13 16 16 16 16 16 15 16 15 15 15 16 15 14 14 15 16 16 16 15 15 14 13 15 16 16 18 17 17 17 17 17 15 16 15 15 16 16 15 14 13 12 12
12 13 13 13 15 15 14 15 15 15 15 15 15 15 14 13 14 14 14 14 14 16 14 14 13 14 15 17 18 17 17 17 17 16 17 16 14 16 17 17 16 14 13 13 12
11 12 12 13 14 14 15 15 15 14 14 14 13 13 13 13 12 12 12 13 13 13 13 13 13 13 13 16 18 17 16 16 17 16 15 15 15 15 14 14 14 15 14 13 12
Height
1542 1541 1539 1538 1537 1535 1533 1531 1528 1523 1520 1517 1513 1510 1507 1505 1504 1503 1503 1503 1501 1498 1498 1497 1499 1498 1500 1500 1501 1502 1504 1500 1495 1490 1481 1469 1469 1479 1482 1482 1481 1481 1478 1479 1488
1543 1541 1540 1539 1536 1535 1533 1531 1527 1524 1520 1516 1513 1509 1506 1504 1504 1506 1505 1502 1500 1498 1497 1498 1498 1499 1499 1499 1499 1497 1499 1493 1486 1481 1478 1471 1470 1472 1484 1487 1479 1481 1482 1483 1486
1542 1542 1540 1539 1537 1536 1534 1531 1527 1523 1519 1516 1513 1511 1508 1505 1504 1506 1504 1503 1501 1498 1498 1499 1499 1498 1497 1496 1495 1494 1490 1490 1484 1481 1478 1474 1467 1477 1482 1471 1475 1481 1485 1483 1488
1543 1542 1540 1539 1537 1535 1533 1529 1526 1523 1519 1517 1514 1511 1508 1506 1509 1507 1505 1503 1501 1499 1499 1500 1498 1497 1495 1492 1491 1492 1485 1486 1485 1480 1479 1476 1470 1470 1478 1499 1481 1479 1481 1481 1487
1543 1542 1540 1539 1537 1534 1532 1529 1526 1523 1519 1517 1514 1511 1509 1508 1510 1507 1505 1503 1501 1502 1501 1500 1498 1494 1493 1489 1488 1485 1483 1483 1481 1479 1476 1476 1471 1471 1473 1482 1474 1477 1481 1480 1485
1543 1541 1539 1537 1535 1533 1531 1529 1526 1522 1519 1517 1514 1511 1509 1510 1509 1507 1505 1503 1502 1501 1501 1500 1498 1497 1494 1491 1489 1484 1482 1480 1479 1478 1476 1475 1472 1471 1468 1475 1476 1477 1476 1480 1484
1541 1540 1538 1536 1535 1533 1530 1528 1524 1521 1517 1515 1514 1511 1512 1513 1509 1506 1504 1503 1501 1500 1500 1500 1499 1498 1493 1489 1485 1484 1482 1479 1477 1478 1474 1474 1471 1462 1465 1470 1472 1468 1473 1478 1480
1542 1540 1538 1536 1534 1532 1529 1526 1523 1519 1516 1515 1514 1513 1513 1511 1508 1506 1506 1504 1502 1500 1499 1498 1497 1496 1494 1490 1486 1485 1481 1485 1471 1469 1468 1474 1465 1463 1466 1466 1464 1468 1471 1475 1479
1541 1539 1537 1535 1533 1531 1528 1525 1521 1518 1516 1515 1515 1513 1511 1510 1508 1506 1504 1503 1502 1501 1499 1498 1498 1494 1491 1488 1487 1478 1482 1475 1467 1460 1460 1465 1460 1461 1464 1461 1460 1462 1465 1471 1476
1541 1539 1537 1535 1533 1530 1527 1524 1520 1518 1516 1514 1514 1517 1512 1510 1506 1505 1503 1501 1501 1499 1497 1496 1494 1489 1485 1483 1490 1479 1477 1471 1470 1460 1455 1457 1455 1455 1456 1456 1456 1458 1460 1464 1469
1541 1539 1537 1535 1532 1529 1526 1522 1523 1519 1518 1517 1515 1514 1512 1509 1505 1504 1503 1501 1499 1495 1491 1488 1489 1491 1484 1478 1474 1474 1476 1476 1469 1462 1461 1456 1452 1448 1449 1451 1451 1452 1453 1457 1462
1542 1540 1537 1534 1532 1530 1527 1527 1530 1531 1521 1514 1513 1512 1510 1508 1506 1503 1502 1501 1497 1493 1487 1487 1490 1481 1480 1476 1476 1476 1474 1472 1466 1461 1461 1457 1452 1443 1442 1444 1447 1448 1449 1456 1457
1542 1539 1537 1534 1532 1531 1529 1529 1528 1527 1527 1513 1512 1512 1511 1509 1507 1504 1503 1500 1495 1492 1489 1492 1486 1481 1479 1477 1476 1474 1472 1469 1467 1460 1456 1456 1454 1447 1437 1437 1440 1445 1448 1448 1451
1542 1539 1537 1535 1534 1532 1532 1529 1527 1525 1523 1512 1511 1511 1509 1507 1506 1502 1502 1503 1496 1492 1490 1488 1481 1480 1479 1477 1474 1478 1465 1461 1467 1466 1472 1454 1467 1444 1435 1432 1433 1440 1443 1447 1453
1542 1539 1536 1533 1533 1532 1532 1528 1527 1526 1523 1510 1510 1510 1505 1507 1503 1500 1499 1498 1494 1492 1490 1486 1481 1480 1481 1476 1473 1472 1467 1468 1465 1462 1462 1459 1466 1442 1437 1432 1429 1439 1438 1443 1451
1542 1539 1537 1534 1532 1532 1529 1527 1528 1528 1521 1508 1508 1507 1505 1501 1499 1497 1494 1495 1491 1489 1485 1482 1481 1479 1477 1473 1468 1461 1465 1468 1467 1465 1474 1455 1463 1455 1441 1433 1425 1430 1438 1442 1445
1541 1538 1536 1535 1535 1532 1529 1529 1527 1523 1503 1511 1512 1508 1505 1501 1498 1495 1491 1489 1495 1498 1492 1480 1481 1480 1475 1472 1464 1465 1474 1488 1487 1476 1470 1458 1468 1454 1442 1438 1423 1422 1437 1439 1445
1540 1537 1536 1534 1534 1532 1530 1529 1527 1506 1514 1512 1513 1508 1504 1500 1500 1496 1490 1492 1494 1497 1498 1496 1492 1479 1474 1475 1475 1467 1474 1489 1491 1470 1466 1465 1469 1464 1449 1439 1422 1421 1425 1436 1443
1539 1536 1535 1535 1534 1533 1534 1526 1522 1521 1521 1520 1513 1507 1504 1501 1502 1499 1493 1496 1497 1498 1506 1499 1493 1476 1470 1470 1471 1468 1478 1481 1488 1477 1471 1468 1464 1457 1443 1438 1435 1434 1441 1445 1450
1538 1537 1537 1535 1533 1533 1533 1524 1519 1523 1524 1522 1522 1510 1516 1509 1507 1504 1495 1498 1501 1500 1498 1496 1498 1476 1468 1465 1468 1472 1476 1482 1481 1473 1481 1463 1450 1451 1441 1440 1439 1445 1450 1454 1456
1538 1537 1534 1534 1532 1533 1528 1521 1522 1525 1526 1524 1520 1520 1516 1513 1511 1506 1499 1502 1501 1500 1497 1491 1492 1483 1468 1468 1468 1471 1469 1472 1480 1480 1480 1469 1466 1447 1446 1445 1448 1453 1457 1460 1464
1538 1537 1534 1533 1534 1525 1523 1527 1529 1524 1526 1524 1521 1517 1515 1514 1512 1509 1503 1502 1502 1501 1498 1494 1494 1492 1470 1464 1463 1464 1465 1463 1485 1487 1490 1488 1477 1451 1450 1453 1456 1460 1464 1467 1470
1538 1535 1532 1533 1530 1524 1522 1523 1525 1527 1523 1522 1521 1515 1516 1515 1516 1506 1504 1502 1502 1501 1503 1500 1494 1495 1479 1473 1465 1467 1462 1460 1461 1475 1479 1490 1482 1458 1455 1460 1463 1467 1470 1472 1474
1537 1533 1532 1531 1529 1528 1526 1524 1524 1524 1524 1523 1522 1519 1515 1513 1509 1506 1503 1500 1501 1500 1501 1502 1498 1500 1501 1484 1475 1473 1466 1462 1464 1479 1475 1472 1467 1465 1461 1463 1467 1471 1474 1475 1478
1533 1530 1528 1526 1525 1526 1526 1525 1525 1524 1523 1521 1519 1518 1518 1519 1513 1508 1504 1502 1501 1499 1500 1500 1499 1490 1482 1475 1469 1470 1468 1464 1467 1467 1473 1470 1472 1470 1466 1464 1468 1472 1476 1478 1480
1528 1528 1527 1528 1527 1528 1525 1524 1523 1523 1524 1521 1519 1518 1519 1521 1517 1512 1508 1508 1505 1499 1500 1500 1498 1491 1481 1467 1468 1469 1466 1466 1464 1465 1462 1465 1472 1467 1467 1466 1470 1474 1477 1480 1482
1523 1524 1525 1525 1525 1526 1522 1521 1522 1525 1524 1521 1522 1521 1521 1518 1516 1512 1509 1506 1504 1504 1504 1501 1497 1495 1490 1472 1466 1474 1474 1470 1467 1470 1472 1472 1471 1469 1470 1471 1473 1474 1477 1480 1483
Wind_Speed
10 11 10 9 11 14 16 20 23 25 25 22 19 15 17 17 6 5 4 5 7 7 5 11 7 4 7 7 14 12 5 11 17 17 18 27 10 16 14 17 11 9 6 25 33
9 11 10 10 12 13 17 21 24 27 26 22 19 16 16 15 5 4 9 8 7 6 7 8 4 3 8 11 8 10 8 14 12 14 15 23 19 9 7 32 11 13 14 34 33
10 10 8 8 10 12 16 21 25 28 25 22 18 18 14 6 6 5 10 9 10 9 7 7 6 6 11 16 16 14 17 13 19 24 25 23 23 9 8 6 9 17 24 32 32
9 9 6 7 9 12 17 20 25 28 23 20 18 19 5 7 4 8 10 10 9 12 9 8 5 6 5 6 16 17 21 22 22 26 26 19 25 20 26 18 5 7 25 31 30
8 8 7 7 10 14 17 21 23 25 22 17 19 15 3 4 5 11 11 12 12 9 7 8 10 6 7 8 11 14 12 22 24 24 24 22 21 18 19 19 9 7 13 29 28
9 10 9 10 12 14 17 20 22 23 19 15 17 13 7 3 11 11 11 10 7 7 7 7 7 10 11 11 11 14 20 19 17 20 23 19 17 24 24 22 8 13 18 25 26
11 11 11 11 12 15 18 20 21 22 18 15 14 6 5 4 12 11 12 10 9 7 7 7 8 8 12 10 16 13 14 13 15 16 15 20 18 23 27 26 15 18 25 18 26
12 12 12 12 13 15 18 19 20 20 12 12 9 3 6 11 11 12 9 10 13 12 8 8 9 12 13 13 17 14 15 13 7 17 23 17 26 18 21 25 27 23 21 27 28
13 13 13 13 13 15 18 19 15 15 13 7 7 5 1 10 10 12 9 9 10 11 11 9 7 9 11 10 9 10 11 14 13 13 10 19 23 13 26 25 29 22 23 23 25
13 13 14 14 14 15 17 15 14 9 16 7 7 4 3 14 18 12 8 9 5 10 14 9 10 7 9 9 9 13 15 16 15 13 11 13 20 15 20 25 23 23 30 28 26
14 14 14 14 14 15 17 15 13 5 12 7 8 7 11 16 8 4 6 9 10 14 10 9 8 9 16 16 15 15 14 17 18 18 18 17 15 15 21 21 19 25 24 29 27
14 15 15 15 14 11 13 7 8 8 12 8 9 9 10 11 10 5 10 8 15 11 14 9 12 12 14 14 12 16 18 16 15 16 15 17 19 16 12 16 20 12 13 25 24
15 15 15 15 11 13 9 10 12 8 6 3 5 6 5 7 8 9 8 15 13 10 15 11 12 10 16 14 14 15 16 15 16 14 17 14 18 17 13 20 22 22 22 20 27
14 15 15 12 5 11 3 13 13 7 3 6 3 2 6 7 4 4 4 5 7 13 11 8 9 13 12 14 14 12 17 14 11 15 8 13 12 16 16 16 16 21 24 13 22
15 15 15 14 10 6 9 13 11 3 3 3 4 4 9 6 12 2 9 4 12 12 11 11 12 9 11 13 15 15 4 9 16 14 11 15 9 12 13 17 17 13 23 24 21
16 16 14 14 10 10 13 12 6 4 1 4 1 8 12 10 11 7 15 9 12 12 12 11 3 4 7 13 15 12 6 8 10 5 9 12 3 6 9 16 15 12 21 25 29
15 15 13 10 4 11 11 6 4 4 0 5 7 11 12 7 12 11 13 7 9 11 13 11 9 12 6 14 5 6 1 4 3 1 5 8 5 11 18 19 3 18 27 28 25
16 14 10 9 10 9 8 4 4 7 9 10 11 16 12 3 7 12 16 7 11 13 12 11 9 12 9 10 7 13 4 2 4 2 3 5 5 4 18 22 24 29 28 29 23
15 11 10 10 9 9 7 4 6 8 8 10 13 8 9 11 10 12 13 7 8 14 10 9 6 14 6 5 3 7 4 6 3 4 3 4 5 9 17 3 10 23 21 21 19
14 5 8 8 9 6 4 7 5 7 8 7 6 6 11 13 9 12 10 9 7 13 14 3 8 11 6 6 4 3 8 3 1 4 5 5 12 7 7 7 10 12 18 18 18
8 6 7 8 9 3 4 4 4 8 6 6 8 10 12 12 12 11 6 7 8 13 17 11 5 11 8 3 7 1 3 2 2 5 3 3 6 9 8 8 11 12 16 14 15
3 4 3 9 4 6 3 3 4 5 7 6 4 7 7 9 9 11 8 6 10 14 10 7 4 7 7 5 1 6 5 4 2 4 4 3 5 8 9 12 17 17 16 16 16
3 7 7 0 3 5 2 2 5 4 5 4 6 4 5 7 5 7 8 6 7 8 7 6 5 7 8 2 2 5 9 7 6 4 10 3 4 4 10 11 17 17 15 15 16
2 2 6 5 5 4 7 7 3 5 6 7 9 10 9 8 8 6 11 5 19 10 1 2 5 9 9 12 10 8 8 6 4 1 2 1 5 9 9 9 13 15 15 16 16
7 4 0 1 4 3 6 8 10 7 5 5 5 5 5 5 12 11 14 15 12 2 3 5 6 11 14 18 6 7 7 7 4 4 3 6 7 7 6 4 15 17 17 16 16
5 4 2 4 5 7 3 6 8 7 8 7 7 9 8 10 12 15 13 10 7 6 10 7 6 13 15 14 5 7 6 7 5 6 2 5 7 6 10 15 17 16 16 16 16
15 8 4 3 5 5 7 5 6 4 8 6 6 6 9 10 15 21 22 20 18 14 12 4 4 6 5 14 11 3 5 6 4 7 6 3 4 5 7 10 12 14 12 15 15
Wind_Direction
8 3 14 27 25 25 18 9 3 357 350 345 339 332 336 338 359 30 16 353 347 350 34 354 293 272 239 237 226 225 244 240 244 261 274 281 286 152 258 303 200 179 48 165 159
6 8 17 19 19 16 8 1 360 357 355 360 359 351 345 341 73 54 344 350 355 342 14 1 341 259 244 231 235 213 227 246 266 261 271 294 311 122 126 245 229 146 107 147 153
10 8 12 12 8 2 358 358 358 358 358 0 3 353 348 18 68 19 360 12 15 4 353 323 306 282 265 248 223 229 238 272 272 274 286 296 294 322 42 314 222 194 148 152 157
7 6 4 358 354 355 355 356 357 357 356 355 354 352 23 26 37 338 350 355 356 9 356 324 306 270 244 248 245 255 251 255 258 269 277 282 295 291 133 263 304 311 163 159 167
2 360 353 344 347 350 350 350 351 354 353 354 356 353 30 340 30 345 355 359 7 337 332 329 302 298 256 282 269 261 268 269 271 270 278 281 282 289 282 265 226 216 147 169 172
358 357 353 340 337 340 341 342 342 346 345 343 355 356 21 341 341 338 340 345 338 333 329 329 331 314 292 266 268 288 303 294 295 288 273 279 266 275 267 268 178 184 187 174 178
359 353 347 337 332 333 336 337 336 336 341 340 347 5 14 7 346 332 329 327 325 322 301 310 308 303 312 303 268 288 278 280 265 263 272 272 267 247 262 265 216 183 197 190 187
355 349 342 337 335 336 336 338 335 333 343 343 356 35 299 333 351 354 318 306 295 321 295 296 300 282 271 277 294 278 268 268 249 236 234 243 253 250 261 256 257 177 187 209 204
352 347 344 338 337 338 339 338 339 342 346 360 13 339 296 344 345 316 324 302 292 291 288 288 295 267 289 262 275 256 257 259 263 247 232 209 252 240 247 252 246 211 186 213 210
351 347 344 342 340 340 345 344 348 345 6 11 7 327 257 341 324 311 318 301 300 303 277 233 227 273 266 252 273 301 314 310 306 300 286 239 232 241 242 241 249 234 190 203 207
354 348 347 345 347 350 358 16 360 5 331 273 302 290 303 318 331 296 306 302 266 271 281 220 284 279 296 302 306 313 294 288 290 294 297 291 288 229 230 240 256 263 193 196 188
356 353 350 349 353 4 19 44 23 317 312 270 265 284 309 301 312 195 323 299 334 324 307 333 309 335 333 310 288 286 285 278 286 284 274 282 281 274 223 229 236 233 216 200 185
357 355 353 354 3 11 9 13 351 352 274 283 236 286 297 319 308 303 334 323 308 298 354 317 323 328 321 306 300 287 286 281 278 282 293 287 268 270 250 230 203 209 231 219 192
352 352 350 358 15 10 320 331 344 347 281 150 190 187 296 311 257 305 328 311 318 338 333 299 298 308 316 305 331 301 275 294 296 293 263 267 271 245 242 226 202 197 210 186 201
351 353 351 356 338 14 310 322 336 31 312 92 124 284 295 244 284 201 289 254 284 328 301 318 343 330 311 331 320 293 10 315 295 262 270 265 275 258 274 250 180 198 182 192 201
349 354 355 350 9 336 327 332 12 235 149 128 99 337 338 337 343 306 313 207 266 314 323 340 341 323 339 301 300 272 344 2 318 302 273 253 188 289 270 276 181 178 192 190 185
345 348 354 353 318 317 331 358 268 263 221 53 343 331 321 335 333 346 319 47 15 341 339 333 19 326 282 342 335 18 115 20 307 276 249 13 123 252 317 307 204 173 198 186 164
337 343 356 18 356 347 13 274 268 29 30 10 343 303 286 6 332 321 327 26 30 356 324 352 335 358 324 329 303 310 120 99 298 304 287 156 213 325 271 280 34 62 177 137 137
336 347 4 353 358 348 321 264 19 24 9 340 321 344 351 353 355 347 330 40 29 8 356 324 310 309 318 318 328 323 40 153 255 259 251 77 335 260 237 127 105 74 81 90 111
337 331 248 343 347 347 272 282 24 29 357 327 308 333 339 335 340 337 325 49 11 11 344 313 299 294 344 260 166 287 148 302 137 344 36 138 50 42 57 59 91 88 83 89 99
345 303 255 325 340 254 261 339 15 4 357 326 335 320 321 319 339 320 327 68 26 358 326 323 308 294 298 350 332 227 299 130 234 15 28 19 26 34 20 94 84 85 96 106 114
339 261 265 333 268 218 287 31 343 312 318 265 285 287 311 342 312 310 335 8 19 360 332 359 280 289 306 28 20 266 270 313 89 39 330 289 50 44 46 71 81 92 98 108 118
253 285 287 257 276 332 16 292 200 308 310 317 301 306 314 306 305 322 327 47 351 10 8 341 334 321 339 168 288 355 349 357 356 105 48 51 306 62 72 86 98 104 111 115 116
256 267 197 218 258 279 322 304 301 180 273 270 278 298 278 302 305 293 305 349 345 327 270 240 266 288 284 324 315 313 332 345 341 93 75 232 38 31 36 106 104 114 119 121 124
202 248 42 215 213 311 305 296 297 299 205 266 281 236 303 302 317 283 325 328 322 164 252 11 285 306 316 301 330 308 318 324 340 359 359 328 67 45 28 40 122 127 128 129 130
203 221 223 278 306 291 262 268 310 292 294 282 304 333 332 301 295 306 317 314 293 317 351 321 285 309 304 289 246 302 17 357 10 20 341 21 68 89 32 107 126 133 138 139 136
215 205 164 228 210 239 263 337 348 339 281 281 324 320 306 312 316 293 283 276 270 287 296 278 289 333 279 339 315 214 17 3 358 41 344 31 105 23 62 50 48 131 146 148 148